Wind_Speed
10 11 11 10 9 8 7 6 5 3 1 0 1 3 4 3 3 4 5 7 9 11 11 12 11 11 10 10 11 11 12 11 10 10 11 11 10 9 8 8 7 7 6 6 6 5 5 5 5 6 6 5 4 5 5 4 4 3 1 1 6 9 11 11 11 15 16 20 22 21 25 23 19 18 15 20 25 26 26 25 26 27 26 25 25 25 25 24
11 11 11 10 9 8 6 5 4 2 1 1 2 3 3 2 2 4 6 8 10 11 11 10 9 9 8 9 10 10 10 10 10 10 9 9 7 7 7 6 6 5 5 5 5 5 5 6 5 5 4 2 4 6 6 4 4 3 2 3 9 10 14 17 17 19 19 19 19 18 23 20 16 16 13 18 25 26 25 25 25 25 24 24 24 24 24 23
11 11 10 9 8 6 5 4 2 2 1 1 2 2 2 2 4 5 7 9 10 10 10 9 8 9 8 9 9 9 9 8 8 9 7 7 5 6 6 6 6 5 6 5 6 6 6 6 4 3 2 2 5 7 5 4 3 1 2 3 10 11 14 20 19 17 16 16 15 16 20 18 14 15 14 18 24 23 23 23 23 23 23 23 23 24 23 24
11 11 10 9 7 5 4 3 2 2 1 1 1 2 3 4 6 7 8 8 8 9 8 8 8 8 8 8 8 8 8 5 6 8 6 5 5 6 6 6 7 6 7 7 7 7 6 6 5 4 4 4 5 5 3 4 2 2 3 6 13 11 12 19 16 14 14 13 13 13 18 19 16 15 14 17 21 23 22 21 22 22 23 23 24 25 25 25
10 10 9 8 6 5 4 3 2 1 1 1 2 3 4 5 6 6 7 8 8 8 8 8 7 7 7 7 6 7 6 5 6 8 6 6 6 7 8 8 8 8 9 10 9 7 6 6 4 5 6 0 5 2 4 5 4 5 6 9 11 9 12 17 13 12 13 11 12 13 17 20 20 19 17 17 20 23 23 23 24 24 24 25 25 26 26 27
10 9 8 7 6 4 3 3 2 2 2 2 3 4 4 5 5 6 7 7 8 8 8 7 6 6 5 5 5 5 7 8 7 8 7 7 7 7 8 8 9 10 10 10 9 8 8 7 5 5 3 3 4 3 6 6 3 4 6 7 7 8 11 13 11 11 12 12 15 16 17 20 21 21 20 19 20 22 23 24 25 25 26 26 27 28 28 29
9 8 7 6 5 4 4 3 3 2 2 2 2 3 3 4 5 6 7 7 7 7 6 6 5 4 4 4 3 5 9 9 8 8 7 7 7 7 8 8 10 9 8 10 11 10 10 8 5 3 1 4 4 4 6 5 3 4 6 7 5 6 8 11 12 12 14 14 16 18 19 21 21 21 21 20 21 21 23 24 25 26 26 27 28 28 29 29
8 8 6 5 5 4 4 3 3 2 1 1 2 2 3 4 5 6 6 7 6 6 5 5 5 4 4 5 5 7 10 8 7 8 8 7 7 7 7 8 9 8 9 11 11 10 9 8 6 3 2 1 2 3 3 4 3 4 6 5 4 7 9 12 13 13 15 16 17 19 21 23 23 23 23 22 21 21 23 24 26 27 28 28 28 28 29 30
8 7 6 6 5 5 4 3 2 1 2 2 3 3 3 4 5 6 6 6 6 6 6 5 5 5 6 7 8 10 9 6 7 8 8 9 8 8 7 7 9 10 9 10 10 9 8 8 7 5 4 3 3 4 5 4 3 4 4 4 6 8 10 12 14 16 17 18 20 25 27 27 25 23 23 22 21 22 25 27 28 30 30 29 28 29 30 32
8 7 7 6 5 4 4 4 4 4 4 4 3 3 4 5 6 6 6 6 6 7 7 6 7 6 6 7 9 9 8 8 8 8 8 9 10 9 8 8 10 9 8 8 9 8 8 9 9 7 6 4 4 5 7 6 4 4 2 5 9 10 11 15 18 21 22 20 20 27 30 30 27 23 23 23 22 23 27 29 30 30 29 28 28 30 31 32
8 8 7 6 6 6 6 6 5 5 5 4 4 5 6 6 7 6 6 7 8 9 9 9 9 8 8 9 9 8 8 8 8 9 9 9 10 9 8 8 9 8 8 8 8 9 9 10 9 8 6 5 5 5 7 7 5 4 4 7 9 14 15 15 19 23 25 22 20 26 29 29 26 23 25 25 23 25 28 29 27 26 26 27 29 30 31 33
9 9 8 8 8 7 7 7 7 7 6 6 6 7 7 7 8 8 9 9 10 11 10 11 10 9 9 7 6 7 9 10 10 10 9 9 10 9 9 8 9 9 9 8 9 10 10 10 10 9 7 6 5 4 5 7 5 2 5 7 9 17 16 13 18 21 23 22 21 26 27 27 27 24 25 25 25 26 28 27 24 23 25 27 29 31 33 33
11 10 10 10 9 9 8 8 8 8 7 7 7 8 9 9 9 9 10 10 10 10 11 12 10 8 7 5 7 11 11 11 11 11 11 11 11 11 10 9 10 10 10 10 11 12 12 12 11 10 8 6 4 2 3 7 8 5 6 7 9 13 11 13 18 16 19 20 22 25 22 25 27 24 24 24 25 26 27 25 22 23 26 28 30 33 34 34
12 12 11 11 10 10 9 9 8 8 8 9 10 10 10 10 9 10 10 10 9 8 10 12 9 9 10 9 12 14 13 13 13 13 13 13 13 12 11 11 11 11 11 11 11 12 13 11 10 9 9 8 3 1 4 9 10 10 6 3 8 12 9 13 15 14 17 18 24 25 21 23 25 23 24 25 25 27 27 23 21 24 27 29 31 32 34 34
13 12 12 11 11 10 9 9 9 9 10 11 12 12 11 10 9 9 9 10 11 10 9 9 9 11 13 13 15 15 15 15 15 14 14 14 14 13 12 12 11 11 11 11 12 13 12 10 9 10 10 8 3 2 5 8 6 10 7 2 10 15 14 13 12 16 19 19 25 23 19 23 24 23 24 25 26 26 26 23 20 24 28 30 32 33 34 34
13 13 12 12 11 10 10 10 10 11 12 12 12 11 10 10 11 11 11 9 11 12 11 9 9 11 13 15 16 16 16 16 16 15 15 14 13 13 13 13 12 12 11 11 12 11 11 10 8 8 9 8 6 3 3 1 6 11 9 6 12 17 18 15 13 17 20 23 26 21 20 24 24 25 25 25 26 25 24 24 23 25 28 31 32 33 34 34
13 13 13 12 11 11 11 12 13 13 13 13 12 11 11 12 13 13 12 12 12 13 12 11 10 11 13 13 13 15 17 18 17 15 15 14 14 13 13 14 13 13 12 11 12 12 11 9 8 8 9 9 9 5 1 3 11 12 11 11 14 18 20 18 16 19 22 26 26 20 19 22 24 27 27 26 26 24 23 26 27 27 29 30 30 32 33 34
13 13 13 12 12 13 14 14 14 13 13 12 12 12 12 11 12 10 11 13 11 11 13 12 9 11 14 14 13 16 18 16 15 15 15 14 14 13 14 14 12 13 12 10 11 12 10 6 5 7 9 13 15 15 12 10 12 12 13 15 18 23 22 19 20 23 24 26 23 19 18 19 24 29 28 25 22 21 24 26 28 29 29 30 31 33 33 35
14 14 13 13 14 15 16 16 15 14 13 11 11 11 10 11 11 12 13 11 7 9 13 15 14 16 16 16 17 17 16 15 14 16 16 14 14 13 13 13 13 12 9 6 8 10 10 6 6 8 13 18 19 18 16 13 12 11 13 14 18 23 21 22 25 24 24 27 24 19 20 20 24 29 28 23 18 20 25 26 26 28 29 30 32 34 35 35
14 14 15 15 16 16 17 17 18 18 17 14 13 13 13 12 10 11 10 6 8 15 18 18 19 17 14 13 15 15 14 16 17 17 16 15 14 13 13 14 12 11 7 6 9 10 10 10 10 16 18 17 16 15 16 17 14 12 12 10 15 22 26 30 29 23 23 28 28 24 23 23 22 26 28 23 18 21 26 25 24 27 29 31 33 35 36 36
15 16 16 17 17 18 19 20 21 21 20 18 16 16 17 14 12 10 8 10 16 19 19 19 18 16 14 12 11 11 14 16 16 16 16 15 14 13 13 12 8 7 7 8 9 10 12 12 16 20 18 15 15 16 18 19 16 13 12 9 14 26 34 35 29 24 24 27 31 30 29 28 23 24 28 27 24 23 27 27 25 28 30 32 33 34 34 34
16 17 17 18 18 19 20 21 22 21 20 19 18 18 17 15 14 11 12 16 18 17 17 18 17 15 15 14 12 12 13 14 13 13 14 14 15 13 12 12 7 6 8 7 6 9 12 13 15 17 18 17 17 18 19 20 16 12 11 11 19 30 38 39 32 26 26 27 32 31 30 33 28 24 27 29 30 28 30 31 28 29 31 32 32 32 31 31
17 17 18 18 19 19 19 20 20 19 18 17 16 15 14 14 13 13 15 17 16 16 16 16 15 15 15 15 15 13 13 16 14 15 16 15 16 14 13 13 11 8 7 5 4 8 12 12 13 16 20 21 20 19 21 23 19 11 11 14 22 33 37 38 36 31 28 26 27 27 29 34 27 19 23 29 31 31 32 33 30 29 31 31 30 28 27 28
18 18 19 19 19 19 19 18 16 15 13 12 11 10 10 10 10 10 13 15 17 17 16 15 15 16 18 18 17 14 14 18 18 17 17 16 15 14 14 13 12 11 9 9 7 9 13 12 13 17 19 23 21 19 23 26 24 15 9 13 26 38 35 32 33 32 31 25 21 23 26 29 23 17 23 29 28 28 30 32 31 28 27 27 25 23 24 27
19 20 20 20 20 19 17 15 12 10 9 7 7 6 5 5 5 6 8 9 14 18 17 17 16 18 20 19 20 17 15 18 19 18 17 16 15 14 14 13 12 12 11 11 9 9 12 12 14 17 19 22 23 23 24 25 27 18 8 17 32 39 35 30 29 31 32 24 22 24 18 18 23 23 23 27 28 29 29 28 25 22 20 20 21 20 22 26
20 21 21 20 19 17 15 12 10 8 6 5 4 2 2 5 6 7 7 4 9 17 19 19 18 20 21 19 21 18 15 18 19 18 17 16 15 14 14 13 13 13 11 10 7 9 13 14 13 17 20 23 26 26 24 24 28 21 16 26 37 38 32 27 27 29 26 21 25 26 14 14 27 31 27 30 33 30 28 23 17 15 15 16 18 20 23 25
22 21 20 19 17 15 13 10 9 7 6 4 2 2 3 6 5 5 4 1 6 17 19 19 19 20 21 20 20 18 16 18 18 17 17 16 15 13 13 14 13 13 14 11 8 11 15 14 12 15 21 26 29 29 26 25 26 26 27 30 37 39 30 24 26 26 25 26 27 23 17 19 30 35 34 35 33 25 23 15 10 12 12 13 17 20 24 27
21 20 19 16 14 11 9 8 7 6 5 3 3 3 3 5 4 4 3 1 6 15 17 18 19 19 20 20 20 19 17 18 18 17 17 16 15 13 12 14 13 12 15 15 13 14 15 14 14 16 21 26 30 28 25 24 25 30 29 28 36 36 27 25 25 21 22 23 20 19 27 23 25 40 39 28 21 15 12 9 10 11 11 14 18 22 28 33
20 18 15 12 9 7 6 6 6 6 5 3 2 3 4 5 3 3 3 2 6 13 14 16 18 17 19 19 19 19 18 18 19 18 18 17 16 14 12 14 16 13 15 18 18 18 18 17 16 16 19 26 30 27 25 24 26 29 26 27 34 30 24 24 18 16 19 15 11 19 33 19 19 40 36 16 9 6 9 11 13 14 16 20 25 31 37 40
17 14 11 7 5 3 3 4 6 6 5 4 2 2 4 5 6 4 2 3 6 11 13 15 17 17 18 19 19 20 19 18 19 17 17 16 15 14 12 14 17 14 14 18 20 21 21 19 19 17 16 24 30 27 24 24 23 25 25 29 35 30 23 13 9 17 16 9 7 21 35 24 15 25 26 17 13 7 9 14 17 18 22 28 34 39 43 44
13 10 7 3 1 2 2 3 4 4 5 5 3 2 3 5 7 4 2 5 7 9 12 13 17 18 19 21 21 21 19 18 20 17 17 16 13 15 15 15 19 15 12 16 19 19 19 18 19 17 16 23 30 27 23 24 21 21 25 29 32 31 22 9 10 18 8 6 17 29 40 31 13 15 18 17 19 18 20 18 16 21 29 36 41 44 44 43
9 7 4 1 1 3 3 2 3 3 3 3 2 3 3 5 9 8 6 7 7 10 12 13 17 19 19 22 22 21 19 19 22 21 21 21 18 20 21 21 22 17 13 18 18 17 18 16 14 15 16 22 31 29 25 27 21 18 27 29 22 19 16 9 9 11 6 13 28 37 38 24 15 20 19 19 27 30 24 16 15 25 36 42 46 45 43 45
7 5 4 4 4 5 4 3 3 3 2 2 1 3 3 4 7 9 9 9 8 12 11 11 17 18 18 21 22 21 20 20 22 21 21 22 21 21 22 21 19 16 16 19 15 15 19 14 10 16 18 22 31 28 25 29 20 17 27 23 13 9 7 5 6 6 8 21 37 40 29 18 17 21 22 29 33 24 13 13 20 32 42 48 50 47 48 54
8 7 7 7 6 5 5 4 4 4 3 3 1 2 5 7 7 7 9 10 10 12 9 8 15 17 17 20 21 22 21 19 22 20 18 20 20 20 21 21 18 17 19 16 11 13 14 10 14 20 18 22 30 23 20 24 16 15 21 12 10 12 5 4 6 6 9 22 36 33 18 13 17 23 30 33 24 13 12 21 32 40 47 52 53 53 57 63
11 9 8 7 6 6 5 5 5 5 5 6 3 3 7 8 7 6 8 9 11 13 10 7 13 16 16 18 20 22 20 17 21 20 17 20 21 21 23 23 20 20 20 15 12 11 7 11 19 16 14 23 29 20 17 18 14 18 20 11 13 15 9 12 13 15 19 19 22 21 16 19 26 33 34 22 18 24 30 36 43 47 53 57 58 58 62 64
10 9 8 7 7 7 6 5 6 5 6 6 4 8 12 10 7 7 8 9 10 14 12 8 13 17 16 17 19 20 19 16 18 17 15 19 20 20 21 22 21 21 20 16 14 10 9 17 18 9 13 24 26 20 16 14 16 22 21 16 16 11 9 14 15 21 22 13 14 20 22 27 31 29 21 15 27 39 41 44 49 52 57 59 58 58 61 60
9 8 7 7 7 7 8 8 6 6 7 5 5 12 15 10 9 9 8 10 10 12 14 11 13 17 17 18 18 19 19 16 17 16 13 16 19 20 20 21 20 19 18 16 14 12 15 24 18 9 16 25 25 23 17 14 19 23 22 22 18 9 6 9 11 15 13 8 13 21 27 31 25 16 17 26 35 38 42 50 54 56 58 55 53 57 60 56
10 9 9 9 9 10 11 10 8 8 8 6 11 16 15 11 11 10 9 11 10 11 15 14 14 16 17 18 19 21 20 17 17 17 13 13 18 20 19 20 19 18 16 15 14 15 19 23 16 11 19 27 23 19 17 18 20 21 22 20 13 8 7 11 11 10 9 7 10 20 30 28 19 20 29 33 34 41 50 55 55 56 54 50 53 59 59 53
10 10 11 13 14 15 15 13 12 9 6 8 15 16 13 12 12 12 11 11 11 12 15 16 15 16 18 19 19 21 21 18 17 17 14 15 18 19 18 19 18 16 15 14 14 18 18 14 13 16 24 26 18 15 19 21 22 26 24 14 10 9 9 13 13 10 11 10 10 17 22 18 19 29 32 32 40 52 56 55 55 53 50 52 58 60 56 52
9 10 13 15 15 17 18 16 12 10 10 14 18 15 14 14 13 13 12 12 12 13 15 16 17 17 18 20 20 20 21 17 15 16 15 18 19 18 17 19 18 15 15 15 15 20 20 10 14 25 32 25 17 20 23 20 22 30 25 11 11 13 12 14 15 14 14 11 9 10 13 21 27 27 26 35 49 55 54 56 55 50 51 58 60 57 53 53
11 13 15 15 14 15 16 12 10 13 16 19 18 16 16 14 13 13 12 13 14 14 16 17 18 18 19 20 19 19 20 17 14 14 16 19 20 18 18 20 19 16 15 15 16 20 21 13 16 27 30 25 22 23 21 17 22 26 19 11 13 14 13 11 11 18 22 18 17 13 13 26 28 22 30 44 51 53 53 53 51 49 56 63 59 53 52 57
13 16 17 15 15 15 12 10 13 17 19 19 18 17 16 14 13 12 13 14 14 15 16 16 18 19 18 20 18 18 20 17 13 14 17 19 20 20 19 19 18 17 16 15 17 21 20 15 19 25 24 22 21 19 17 18 24 23 14 13 15 13 15 12 9 19 26 26 31 25 18 28 31 30 41 50 52 54 51 47 49 54 62 63 56 53 56 59
16 17 17 16 16 13 11 14 17 17 18 19 18 16 15 14 13 13 13 15 15 16 16 16 18 19 18 19 18 18 20 16 13 15 18 20 21 21 19 18 17 17 17 16 18 20 16 12 21 29 30 31 28 22 22 26 30 28 19 18 17 17 23 23 19 24 25 23 28 20 15 32 43 42 49 54 54 51 46 46 52 60 65 61 55 56 59 58
16 17 16 16 15 11 11 16 17 17 18 19 17 16 15 14 13 14 14 15 16 16 16 17 18 18 18 19 18 18 18 16 15 16 18 20 22 21 19 18 17 16 17 17 19 20 15 11 18 24 24 29 30 25 28 34 35 30 25 22 22 25 29 28 27 28 22 20 23 14 16 41 54 51 54 56 51 46 46 50 57 62 64 59 55 59 60 57
13 14 14 15 14 11 13 17 17 16 18 17 15 16 15 14 14 15 14 15 17 17 17 17 18 18 18 18 18 18 18 17 16 16 19 21 21 20 19 17 17 16 16 17 18 20 18 14 14 15 11 12 15 18 25 34 34 31 29 27 27 29 29 26 27 26 20 25 30 21 26 51 62 56 56 54 47 48 53 57 61 61 60 58 58 60 59 57
13 12 12 12 12 13 14 17 16 16 16 15 15 15 15 15 15 15 15 16 17 18 17 16 17 18 18 18 18 18 18 19 17 16 20 22 20 20 18 17 17 16 15 17 18 20 21 15 10 15 19 18 19 23 28 30 30 32 34 31 28 28 27 24 24 26 27 32 36 33 37 54 61 56 52 48 46 52 60 62 62 59 58 60 61 60 58 56
14 14 13 11 11 13 15 16 15 15 15 14 14 15 15 16 15 15 16 16 16 17 17 16 18 19 19 19 17 16 17 19 18 18 20 21 20 19 18 17 17 15 16 18 17 20 23 16 13 23 29 25 22 28 32 29 28 33 33 30 27 24 24 23 22 28 33 29 34 49 54 55 58 55 47 45 50 58 63 62 59 58 59 60 62 60 57 57
14 14 14 12 11 12 14 14 15 15 15 14 14 15 16 16 16 15 16 16 17 18 17 18 19 19 19 19 18 18 18 18 19 19 20 21 20 18 17 17 15 15 17 17 18 22 23 19 22 31 34 28 24 28 35 32 28 28 26 26 25 23 25 27 25 27 31 28 38 57 61 55 56 52 44 48 58 62 61 57 55 58 60 61 62 59 58 62
15 13 14 13 12 12 13 14 14 14 14 14 14 15 16 16 16 16 16 16 17 18 19 19 19 19 20 19 18 19 20 20 20 20 20 20 19 18 17 16 15 16 18 17 19 22 23 24 30 34 36 32 25 28 36 31 24 23 21 21 23 24 26 30 30 29 31 38 48 56 55 52 49 44 45 56 62 60 56 53 55 59 61 62 60 57 60 67
15 14 13 13 13 12 13 14 14 13 14 14 14 15 16 16 16 17 17 17 18 19 19 19 20 20 20 19 18 19 20 20 20 20 20 19 18 18 16 15 16 18 19 19 20 23 26 29 33 34 36 33 27 33 38 27 18 19 18 18 23 28 29 29 33 37 41 50 55 50 47 47 43 44 53 60 58 57 54 53 56 60 60 60 58 58 64 69
16 15 13 12 12 13 13 13 13 13 13 14 15 15 15 16 17 17 17 18 18 19 19 20 21 21 20 19 18 19 20 20 19 20 20 18 17 17 15 16 17 19 20 21 22 25 28 32 35 34 31 29 29 37 39 26 14 14 15 20 27 31 30 29 33 41 48 53 53 46 41 42 45 53 61 57 54 55 55 55 58 58 56 56 58 63 68 70
16 15 14 12 12 13 13 12 13 12 13 14 14 15 15 16 17 17 17 18 19 20 20 20 21 22 21 20 20 20 20 19 19 19 19 17 17 17 16 16 18 19 20 21 22 26 29 33 37 31 25 28 32 36 36 25 13 12 17 24 28 29 32 35 39 48 53 50 45 41 39 42 51 61 63 57 54 53 53 56 57 53 51 52 57 64 69 70
Wind_Direction
155 151 146 141 141 142 144 147 151 154 152 257 4 13 21 33 26 11 357 351 345 343 345 347 348 347 346 342 339 335 335 339 337 340 351 356 356 352 347 342 337 333 329 330 330 331 334 339 347 345 340 341 343 332 326 322 308 303 25 334 278 270 255 253 260 267 275 277 279 283 282 288 301 305 301 290 294 305 308 307 306 306 307 306 306 306 307 308
159 156 151 147 148 147 150 158 169 191 239 330 7 19 24 15 350 339 336 337 338 344 350 348 350 349 344 338 332 330 331 337 344 355 3 2 358 346 342 335 330 328 330 337 338 347 353 356 2 341 336 339 321 319 321 325 316 302 164 243 272 265 261 263 269 279 285 285 286 287 289 302 316 315 306 288 294 306 308 308 306 306 306 305 305 303 301 301
163 162 158 155 155 156 165 178 199 232 282 346 13 15 359 325 320 324 328 333 338 345 345 344 347 342 339 337 334 336 338 343 356 9 8 357 354 346 347 339 337 344 348 356 356 4 7 10 23 349 27 154 278 300 308 316 322 313 146 236 263 258 268 269 272 287 294 295 295 295 299 312 324 321 312 295 299 305 305 305 303 302 301 299 298 296 296 297
167 166 164 163 164 172 183 199 220 243 290 345 347 312 303 311 320 328 333 335 339 342 341 343 343 339 341 341 345 347 343 344 0 10 7 358 4 4 4 359 360 3 2 10 11 16 23 26 32 16 69 154 271 294 276 293 278 220 185 238 256 256 268 275 286 304 308 308 304 303 305 312 318 318 312 302 303 306 307 305 303 301 299 298 297 297 298 298
173 170 169 170 176 187 198 211 223 233 264 286 283 290 308 323 331 337 339 338 342 342 342 344 342 346 350 351 360 358 355 4 8 10 13 16 22 21 19 14 9 10 11 16 17 18 23 27 34 42 61 231 301 313 254 284 268 237 237 245 260 267 266 278 300 312 310 311 307 309 308 312 318 319 316 307 303 307 308 305 304 303 301 302 302 303 302 302
176 174 173 176 185 197 206 212 210 223 243 263 288 311 329 339 344 345 343 344 345 344 346 347 350 357 3 15 14 18 32 31 19 18 22 24 27 25 21 14 12 15 16 19 21 21 22 23 25 49 66 248 272 275 264 289 283 249 272 276 275 271 269 288 313 316 314 317 313 315 314 315 319 319 316 309 305 306 305 304 304 304 304 306 306 306 305 304
176 175 174 179 188 196 199 202 208 227 250 285 325 345 353 357 352 348 346 349 352 354 357 360 5 12 29 37 20 41 44 32 25 24 21 23 22 17 14 11 15 15 14 22 24 24 26 25 25 36 262 238 257 278 275 290 276 245 282 301 288 282 295 310 324 323 317 321 320 318 318 318 320 320 315 310 308 307 305 305 305 306 307 308 308 307 306 306
170 168 169 174 180 185 192 200 213 227 275 7 36 33 17 6 355 355 359 5 10 14 23 29 31 36 44 39 33 47 42 29 29 26 19 20 12 6 8 7 9 11 18 26 25 25 28 28 33 23 330 302 321 314 302 298 280 268 288 303 307 314 325 326 332 332 322 325 328 326 325 325 327 324 315 313 314 312 311 310 310 310 310 310 309 309 310 311
160 157 160 166 174 181 188 186 173 130 107 96 76 45 24 13 12 18 22 28 33 39 51 59 53 44 44 40 39 48 44 30 29 24 18 13 8 8 7 4 8 12 21 28 27 27 29 29 30 19 20 32 10 2 355 329 313 312 302 318 329 328 339 342 344 343 333 327 329 334 333 331 332 324 315 319 320 317 317 316 314 313 312 312 312 313 316 317
151 152 157 163 167 164 153 136 120 114 107 89 70 49 41 39 41 46 49 53 53 56 62 67 61 50 49 41 37 45 38 27 22 15 15 12 12 14 12 13 12 13 20 26 25 22 24 30 31 25 34 35 13 8 5 357 337 321 311 338 346 346 337 338 347 347 339 330 331 338 333 330 331 323 318 325 323 319 318 318 316 313 313 316 317 318 319 321
149 152 156 151 142 132 122 117 110 105 94 80 74 62 60 62 66 73 74 72 66 63 60 56 54 48 46 40 35 36 26 22 18 16 21 18 19 23 23 22 16 16 18 17 15 11 16 26 26 23 27 17 352 335 352 2 339 297 314 333 350 352 332 326 342 341 335 336 338 337 329 326 328 323 322 325 320 317 317 318 317 315 316 319 319 319 320 321
147 146 141 131 124 118 111 106 98 93 86 81 77 74 82 86 88 87 78 72 64 60 54 45 39 36 42 42 32 28 25 26 27 30 31 26 29 32 30 26 20 19 15 11 8 5 10 13 9 7 7 0 337 321 354 13 5 299 335 357 355 343 329 321 333 332 330 337 338 333 328 325 325 324 323 320 316 314 316 319 319 318 319 320 320 319 319 319
139 135 128 121 115 108 103 98 94 92 90 90 93 97 99 95 90 82 73 67 62 58 53 46 36 40 57 62 51 45 40 39 39 39 35 31 32 30 28 23 18 14 12 11 8 5 7 6 1 358 0 356 334 333 15 19 29 18 3 30 6 335 325 319 324 325 326 329 333 331 323 320 321 322 320 314 311 312 316 319 320 322 322 322 320 318 317 316
131 127 121 114 108 104 99 97 97 99 101 103 104 103 99 93 86 76 69 61 57 57 59 56 49 61 76 69 56 51 44 41 38 34 30 28 25 24 21 15 11 8 7 8 6 6 7 4 1 0 10 7 338 155 45 30 27 5 350 32 350 335 331 322 315 319 324 323 331 329 316 315 314 316 319 313 311 313 315 317 322 326 324 320 317 315 315 314
126 122 116 109 105 102 102 104 106 106 105 104 101 100 97 90 79 69 67 62 62 64 68 68 58 64 72 62 51 43 36 33 28 25 22 19 17 16 11 8 6 2 1 4 6 5 1 358 2 15 27 15 352 128 64 50 19 347 347 329 333 339 341 335 318 320 326 324 327 325 308 305 305 311 318 314 313 314 311 310 317 325 323 319 318 316 315 315
121 116 112 108 106 107 110 110 106 102 99 97 96 95 94 88 78 67 65 71 72 68 66 65 58 58 59 54 47 39 33 26 20 17 13 11 9 6 6 3 359 359 356 357 4 3 356 350 356 22 29 19 31 95 140 96 340 348 6 352 335 342 345 346 333 321 324 320 320 317 302 298 298 308 317 314 313 314 310 307 309 315 317 316 317 315 313 313
118 116 113 111 113 112 111 106 101 98 95 92 90 90 93 88 76 67 69 75 72 66 63 55 54 58 54 50 42 34 29 20 11 9 7 5 2 360 2 359 353 352 345 347 357 358 355 353 1 14 8 11 28 42 82 335 343 353 0 348 342 349 348 344 334 320 316 314 315 312 302 297 295 301 310 312 312 314 312 307 306 307 307 309 311 310 308 308
119 118 116 116 116 112 108 103 98 94 90 89 86 88 92 81 67 63 70 69 60 60 61 53 51 56 49 39 30 25 23 11 360 4 5 360 358 357 356 354 351 351 353 357 353 355 4 359 344 339 344 5 13 16 25 5 347 349 347 347 350 350 345 334 325 317 315 315 315 313 305 297 292 293 300 306 307 311 310 305 305 303 301 303 304 305 305 303
123 121 120 119 115 111 105 98 93 87 84 83 86 92 89 78 68 63 67 68 58 55 56 48 42 46 40 27 22 20 13 360 358 6 3 356 356 353 351 351 351 2 16 360 336 357 8 332 313 336 355 12 13 14 20 5 347 339 339 352 351 342 332 326 324 320 321 319 316 318 308 296 290 289 296 304 303 304 306 302 302 302 299 297 297 300 300 298
125 123 122 120 115 110 103 96 91 85 81 79 84 90 84 78 71 64 70 79 60 52 52 46 40 41 34 20 18 14 1 356 3 5 357 354 355 352 353 353 355 4 7 338 336 358 350 331 5 18 14 16 10 11 12 358 343 328 336 351 342 334 327 329 333 330 326 314 313 325 314 298 293 288 290 298 297 300 303 297 295 299 295 290 292 295 296 295
127 127 124 120 114 109 102 97 93 88 85 81 80 81 79 77 73 70 74 67 55 49 50 46 39 36 27 16 9 3 1 3 5 0 353 355 357 356 358 358 360 351 343 347 348 345 336 350 25 24 12 7 3 9 9 357 342 328 336 326 320 331 329 331 337 331 324 311 312 327 317 304 304 292 285 294 297 294 294 288 288 294 290 285 285 288 290 291
129 128 124 119 113 108 104 101 99 96 94 89 84 82 81 79 73 66 61 58 53 45 45 43 34 28 22 14 4 360 4 4 2 359 357 0 2 4 2 1 5 351 350 6 350 331 342 11 28 13 2 5 3 3 2 359 353 336 327 303 310 331 332 332 338 331 321 310 312 325 315 303 307 295 282 293 296 286 283 283 283 288 288 282 280 283 288 291
128 126 122 117 112 109 107 106 103 100 97 93 92 89 86 82 71 59 53 53 49 40 38 36 26 20 19 16 9 3 1 3 4 2 4 6 5 6 5 2 1 352 349 355 338 337 355 15 14 358 359 6 2 355 354 358 4 349 315 304 317 335 334 327 331 330 318 312 315 323 313 306 315 309 291 296 293 283 283 282 278 280 281 278 279 285 291 295
127 125 121 116 115 112 110 108 104 99 93 91 95 92 89 83 67 51 42 43 40 32 28 26 19 14 16 15 11 6 3 6 5 4 8 7 5 5 3 3 358 354 348 339 337 349 4 12 1 358 4 5 1 352 350 354 2 359 322 316 330 338 336 323 323 324 318 323 329 322 311 310 322 326 309 300 288 284 289 284 275 275 278 279 284 291 296 301
127 126 123 119 118 114 111 108 102 98 89 88 91 86 85 57 23 11 6 20 28 20 17 17 12 12 14 12 11 8 5 8 6 6 9 6 8 7 2 5 3 1 357 346 341 343 355 0 356 3 6 3 4 356 350 350 354 358 331 326 338 341 339 329 325 324 320 325 333 324 311 307 317 325 319 305 294 291 287 278 272 276 283 286 290 298 305 310
130 129 125 122 118 112 110 104 98 93 80 81 76 54 28 349 335 332 333 346 9 7 10 11 9 11 11 10 10 7 5 7 7 9 8 5 9 7 4 8 8 11 8 352 339 328 335 340 348 4 3 359 2 358 352 347 346 349 333 332 344 347 341 328 323 321 311 305 318 317 299 297 315 325 328 315 306 293 277 271 273 277 279 286 300 311 314 315
135 132 126 121 116 110 106 95 87 78 62 62 32 359 344 345 343 336 327 230 358 358 5 10 11 9 8 9 9 9 11 8 7 9 8 6 7 6 7 8 7 15 18 10 351 334 331 325 328 351 356 356 358 356 351 345 341 339 336 338 345 346 338 325 318 310 297 297 308 314 324 328 318 321 326 316 305 287 272 271 267 269 281 302 318 324 320 319
139 134 127 121 113 103 94 77 63 52 48 44 12 3 346 344 356 0 6 124 1 355 0 8 11 8 5 7 8 13 17 9 9 11 9 9 8 6 8 8 4 2 13 18 7 351 343 331 325 334 344 352 356 354 348 344 340 336 338 338 339 340 336 325 313 298 295 298 294 317 347 346 310 315 324 315 298 279 262 243 234 265 298 309 311 316 318 321
143 138 130 121 107 87 72 54 33 27 29 16 10 11 352 348 345 348 22 53 353 355 1 4 6 7 5 6 8 13 15 12 12 11 8 11 11 8 6 5 3 354 1 10 1 354 354 346 336 331 340 349 351 349 348 346 340 337 339 334 332 338 338 329 318 306 304 290 273 326 346 344 301 315 324 322 305 251 210 215 241 276 297 305 313 319 321 325
148 146 136 120 100 66 38 16 9 18 21 9 10 353 347 353 341 331 22 12 347 357 4 3 3 6 6 5 9 13 13 13 13 10 8 11 11 6 1 357 1 0 358 356 348 349 353 347 335 331 340 347 346 347 350 349 343 340 342 335 335 343 346 345 342 327 311 281 301 332 336 330 304 314 318 316 318 282 248 265 278 301 316 323 328 327 326 328
147 148 141 125 77 26 2 0 8 24 31 32 57 47 21 14 5 14 32 348 344 354 356 359 3 4 4 6 11 12 10 10 10 9 7 9 6 0 0 359 3 9 2 348 344 349 351 342 331 325 328 338 343 346 351 353 349 348 347 340 340 345 349 2 348 339 327 289 318 328 330 326 305 309 316 318 322 314 310 310 316 332 336 333 330 328 328 327
142 144 144 138 64 46 44 43 30 25 31 33 52 39 25 25 30 43 30 351 348 349 345 354 3 4 5 9 11 10 9 10 8 7 6 7 6 6 12 11 8 13 1 345 344 349 348 340 328 322 324 335 344 347 351 355 356 357 352 346 346 346 344 351 341 341 327 300 316 325 326 318 295 305 317 325 325 321 322 328 330 333 335 332 330 330 329 327
136 130 118 99 84 73 73 72 56 51 43 19 23 25 31 46 42 41 30 18 10 357 350 357 3 3 7 9 10 9 10 10 7 6 6 5 6 10 14 13 11 9 354 345 343 346 347 346 332 328 329 338 345 348 347 351 360 2 352 349 355 352 334 333 324 322 311 304 314 321 316 305 303 308 310 315 320 324 327 322 319 328 332 331 331 331 329 327
107 102 98 90 87 86 83 78 69 67 60 51 40 37 66 74 60 47 37 30 21 8 3 6 6 6 8 8 9 9 8 7 4 2 3 2 1 4 6 5 6 2 355 353 347 343 345 342 332 328 330 338 344 345 341 346 358 355 351 355 346 338 314 299 309 302 302 302 311 316 311 312 322 317 311 313 325 341 321 314 321 328 330 329 329 328 326 326
94 95 95 91 87 83 78 78 75 74 69 57 50 69 81 83 68 53 40 29 24 19 17 11 8 12 12 8 9 8 5 5 2 357 355 356 356 358 358 358 359 357 0 2 348 337 315 321 330 323 324 338 340 340 340 344 350 345 349 350 331 327 296 280 284 292 302 299 305 313 308 311 317 314 309 313 336 326 307 313 324 327 326 326 325 325 324 326
98 100 101 96 87 79 74 70 63 70 68 43 46 79 84 86 73 56 42 32 26 23 21 13 9 14 14 10 9 6 3 3 4 358 348 348 351 353 352 353 355 354 360 2 351 339 299 320 342 336 329 342 340 336 342 346 345 344 345 335 328 332 296 283 289 303 308 297 300 311 307 311 319 315 300 300 317 314 310 319 326 326 325 323 322 324 326 327
107 109 109 99 89 81 71 65 57 67 69 45 67 85 84 83 73 61 48 36 29 23 22 21 16 12 9 8 7 5 4 2 3 1 349 343 345 348 348 350 352 352 357 357 351 347 317 321 346 351 332 345 340 329 338 346 341 342 340 328 328 347 322 298 308 313 313 296 299 310 310 313 320 318 307 310 315 319 323 327 326 325 324 323 322 326 328 328
110 110 109 100 89 79 68 67 67 69 73 75 85 86 82 80 71 61 48 36 29 20 20 24 20 10 8 8 3 2 5 1 359 1 357 348 344 343 344 346 349 351 355 353 348 352 333 321 336 345 338 349 345 327 334 340 333 334 333 322 321 341 327 317 321 310 308 306 299 311 313 313 319 322 322 325 327 330 329 326 325 325 325 325 325 327 329 328
102 100 97 90 85 80 71 67 67 72 83 82 83 83 78 74 66 55 45 35 27 20 20 22 16 10 9 7 2 2 3 359 357 358 355 349 343 340 341 343 347 349 350 351 347 352 350 326 313 330 345 354 348 327 329 330 328 332 336 325 302 307 309 312 315 302 302 306 302 315 314 310 321 322 322 331 332 330 328 326 325 325 325 325 326 329 329 327
94 90 86 81 80 79 71 64 67 80 84 75 75 79 73 66 57 48 41 31 26 21 19 18 13 12 8 4 3 2 360 357 356 353 349 348 345 341 340 340 343 346 345 348 347 349 356 334 296 325 347 354 341 329 327 324 328 334 338 330 297 307 319 313 309 311 313 309 304 317 304 302 317 320 317 327 330 328 327 326 324 324 324 325 327 329 328 327
86 82 80 76 71 71 70 67 65 67 68 68 69 69 64 57 47 43 36 28 25 20 18 16 12 11 7 4 3 358 357 357 354 347 343 345 345 339 337 335 337 344 343 345 353 352 350 335 314 328 341 343 333 330 324 315 327 335 336 325 308 313 327 323 311 316 319 311 302 302 292 298 311 320 320 327 330 327 325 324 322 322 324 327 328 328 328 329
82 78 75 71 66 68 74 74 63 58 62 64 62 58 54 48 41 38 31 26 24 18 16 14 9 8 4 2 0 356 356 356 350 342 338 341 343 336 334 334 335 341 342 346 356 354 344 335 329 328 330 335 335 334 329 323 333 339 336 326 319 312 320 322 303 309 315 311 304 301 289 294 308 322 324 327 329 325 323 324 323 323 325 329 329 328 329 331
77 74 71 65 64 66 68 66 60 56 59 59 54 50 46 41 36 32 27 24 20 15 12 8 6 6 1 359 358 355 355 353 346 340 337 339 340 336 334 335 335 337 341 348 353 353 350 341 335 333 333 340 343 342 340 338 339 338 330 323 316 307 313 313 300 305 311 305 305 305 287 296 312 324 325 327 327 323 323 326 326 325 327 330 330 328 330 331
67 68 66 61 58 53 51 57 56 52 53 52 48 44 39 36 32 28 24 20 15 12 9 5 4 2 359 357 354 351 353 353 345 337 334 337 337 336 335 334 335 334 338 347 349 351 355 344 341 343 340 341 345 344 339 338 336 330 323 319 313 308 311 308 306 313 310 299 306 307 284 300 314 324 325 326 326 323 324 326 325 326 327 329 330 331 332 331
53 58 60 58 52 39 41 51 50 46 46 44 40 38 34 31 29 23 19 15 10 8 5 3 2 359 356 354 350 349 351 350 344 334 333 337 336 335 334 331 331 331 332 339 341 347 352 343 344 355 345 326 326 325 328 329 326 321 320 318 311 309 308 306 313 318 310 306 308 296 290 305 314 323 326 328 326 324 327 327 326 327 328 328 331 333 334 333
47 48 48 49 44 33 38 47 44 39 40 36 32 32 30 29 25 19 14 10 5 4 2 359 358 355 353 352 349 349 348 344 342 335 333 336 335 333 332 328 327 325 326 331 334 344 351 344 333 340 335 319 306 316 332 331 319 314 316 315 313 311 305 304 316 318 314 313 307 303 308 311 315 324 329 328 325 326 329 328 328 329 328 329 332 333 334 334
45 45 40 40 38 33 35 41 37 33 33 30 26 28 27 26 22 15 9 5 1 1 359 355 355 354 351 350 348 347 343 338 337 336 334 333 333 332 328 324 323 319 322 329 332 341 348 345 331 333 337 333 324 331 341 335 316 309 309 312 315 308 298 303 313 317 320 318 309 315 321 317 317 325 329 327 327 328 328 328 328 328 328 329 333 334 333 332
41 41 38 37 37 33 33 34 31 27 27 25 23 25 24 20 17 11 5 1 359 357 354 353 354 352 350 348 344 342 341 338 338 338 336 333 332 330 326 322 321 319 323 328 329 338 347 347 339 334 336 340 340 343 344 333 314 308 308 310 308 295 295 307 312 317 322 318 312 317 321 318 319 324 327 327 327 327 328 329 328 327 329 331 334 335 333 332
38 35 34 32 29 29 29 27 25 23 22 21 20 22 20 14 10 7 2 359 356 354 353 353 352 350 348 346 342 341 341 341 340 338 337 335 332 330 326 322 322 322 323 323 325 336 346 346 340 335 336 343 347 345 345 335 316 312 310 304 301 297 299 307 311 317 321 318 317 319 318 317 319 322 324 326 326 326 329 330 329 330 332 334 335 333 331 332
36 32 31 27 23 24 25 23 21 17 16 17 18 18 15 9 6 3 359 356 355 354 352 350 349 348 346 343 341 341 340 339 337 336 336 334 330 330 324 318 321 320 320 322 325 335 343 343 342 338 336 344 348 343 346 344 320 310 301 292 302 306 306 311 316 322 325 323 323 322 316 316 320 322 323 325 326 329 332 332 332 333 335 337 336 331 329 332
34 29 26 23 20 21 21 18 16 13 12 13 15 13 9 5 4 1 357 354 353 352 350 348 346 345 344 343 341 341 340 337 334 333 334 332 329 328 320 316 320 318 318 324 327 335 342 341 343 343 335 337 344 343 346 350 330 311 304 304 312 312 311 316 319 322 326 326 324 324 321 319 321 322 325 328 330 331 333 333 333 335 337 337 332 330 332 335
31 26 23 19 18 19 18 14 12 10 10 11 10 9 6 2 1 359 356 353 351 351 350 347 346 344 345 344 342 340 338 335 334 332 331 331 329 326 318 314 319 318 319 324 330 338 343 341 345 347 331 330 342 343 342 345 335 322 318 310 310 309 308 313 318 322 328 328 324 322 319 317 320 324 327 330 332 331 331 331 332 335 338 335 329 330 334 336
Height
3118 3119 3120 3121 3122 3123 3124 3124 3125 3125 3125 3125 3125 3126 3126 3127 3127 3127 3127 3126 3126 3126 3126 3125 3125 3124 3123 3122 3121 3121 3120 3119 3119 3118 3117 3116 3115 3115 3114 3114 3113 3112 3112 3111 3111 3110 3109 3108 3108 3108 3108 3108 3108 3108 3108 3108 3107 3107 3107 3107 3107 3106 3104 3103 3102 3101 3102 3101 3100 3099 3095 3096 3097 3096 3095 3089 3087 3087 3086 3085 3084 3083 3082 3081 3080 3079 3078 3077
3119 3120 3121 3122 3123 3123 3124 3125 3125 3125 3125 3125 3126 3126 3127 3127 3127 3127 3127 3127 3126 3126 3126 3125 3124 3123 3123 3122 3121 3121 3120 3119 3118 3117 3116 3116 3115 3115 3114 3113 3113 3112 3111 3111 3110 3110 3109 3108 3108 3108 3108 3107 3108 3107 3107 3107 3106 3106 3106 3106 3106 3104 3103 3102 3102 3101 3101 3100 3098 3097 3093 3095 3096 3094 3094 3090 3086 3085 3084 3083 3082 3081 3080 3079 3079 3078 3077 3076
3119 3120 3121 3122 3123 3124 3124 3125 3125 3125 3126 3126 3127 3127 3128 3128 3127 3127 3127 3127 3127 3126 3126 3125 3124 3123 3122 3122 3121 3121 3120 3119 3118 3117 3116 3116 3115 3114 3114 3113 3112 3112 3111 3111 3110 3109 3109 3108 3108 3108 3107 3107 3108 3107 3107 3106 3106 3106 3105 3106 3104 3103 3102 3100 3101 3100 3099 3098 3097 3095 3092 3093 3094 3092 3092 3088 3085 3084 3083 3082 3081 3080 3079 3078 3078 3077 3076 3075
3119 3121 3121 3122 3123 3124 3125 3125 3126 3126 3126 3127 3127 3128 3128 3128 3128 3128 3127 3127 3127 3126 3125 3125 3124 3123 3123 3122 3121 3121 3120 3119 3118 3117 3117 3116 3115 3115 3114 3114 3113 3112 3112 3111 3110 3109 3109 3108 3108 3108 3107 3107 3107 3107 3106 3106 3105 3105 3105 3104 3102 3103 3101 3099 3099 3099 3098 3097 3096 3094 3091 3090 3091 3091 3090 3087 3084 3082 3082 3081 3080 3079 3078 3077 3076 3075 3074 3073
3120 3121 3122 3123 3124 3124 3125 3126 3126 3127 3127 3127 3128 3128 3128 3128 3128 3128 3127 3127 3126 3126 3125 3125 3124 3123 3123 3122 3121 3120 3119 3118 3118 3118 3117 3117 3116 3116 3115 3115 3114 3113 3112 3111 3110 3110 3109 3108 3108 3107 3107 3107 3107 3106 3106 3105 3105 3104 3103 3103 3102 3102 3101 3098 3098 3098 3096 3096 3094 3093 3091 3088 3088 3088 3087 3086 3083 3081 3080 3079 3078 3077 3076 3075 3074 3073 3072 3070
3120 3121 3122 3123 3124 3125 3126 3126 3127 3127 3127 3128 3128 3128 3128 3128 3128 3127 3127 3127 3126 3126 3125 3125 3124 3123 3123 3122 3121 3120 3119 3119 3119 3119 3118 3118 3117 3117 3116 3115 3114 3113 3113 3112 3111 3110 3109 3108 3108 3107 3107 3108 3107 3106 3105 3105 3104 3104 3102 3102 3102 3101 3100 3097 3097 3096 3095 3094 3093 3091 3090 3088 3086 3085 3085 3084 3082 3080 3079 3077 3076 3076 3075 3073 3072 3071 3069 3068
3121 3122 3123 3124 3125 3126 3126 3127 3127 3128 3128 3128 3128 3128 3128 3128 3128 3127 3127 3127 3126 3126 3125 3125 3124 3123 3123 3122 3121 3120 3120 3120 3120 3120 3119 3118 3118 3117 3116 3116 3115 3114 3113 3112 3111 3110 3109 3109 3108 3108 3107 3107 3107 3106 3105 3105 3104 3103 3102 3102 3101 3100 3099 3097 3096 3095 3094 3093 3092 3090 3088 3086 3085 3083 3082 3081 3080 3079 3078 3076 3075 3074 3073 3071 3070 3068 3067 3065
3121 3122 3123 3125 3126 3126 3127 3127 3128 3128 3128 3129 3129 3129 3128 3128 3128 3128 3127 3127 3126 3126 3125 3125 3124 3124 3123 3123 3122 3121 3121 3122 3121 3121 3120 3119 3118 3117 3117 3116 3116 3115 3114 3113 3112 3111 3110 3109 3108 3108 3107 3107 3106 3106 3105 3105 3104 3103 3102 3101 3101 3099 3098 3097 3096 3095 3093 3092 3090 3088 3086 3085 3083 3081 3079 3078 3078 3077 3076 3074 3073 3072 3070 3069 3067 3066 3064 3063
3122 3123 3124 3125 3126 3127 3128 3128 3128 3129 3129 3129 3129 3129 3128 3128 3128 3128 3128 3127 3127 3126 3126 3125 3125 3124 3124 3124 3123 3122 3122 3123 3122 3121 3121 3120 3119 3118 3117 3117 3116 3115 3114 3113 3112 3111 3110 3109 3109 3108 3107 3107 3106 3106 3105 3104 3104 3103 3102 3101 3101 3099 3098 3096 3095 3094 3092 3091 3088 3086 3084 3082 3082 3080 3077 3077 3076 3075 3073 3072 3070 3069 3067 3066 3065 3063 3062 3061
3123 3124 3125 3126 3127 3128 3128 3129 3129 3129 3129 3129 3129 3129 3129 3129 3129 3128 3128 3128 3127 3127 3126 3126 3126 3125 3125 3125 3124 3123 3124 3123 3123 3122 3121 3120 3119 3118 3118 3117 3116 3115 3114 3114 3113 3112 3111 3110 3109 3108 3107 3107 3107 3106 3105 3104 3103 3103 3102 3101 3100 3099 3098 3096 3094 3092 3091 3090 3088 3085 3082 3080 3080 3078 3076 3075 3075 3073 3071 3070 3068 3066 3065 3064 3062 3061 3060 3059
3124 3125 3126 3127 3128 3129 3129 3129 3129 3129 3129 3129 3129 3129 3129 3129 3129 3129 3129 3128 3128 3127 3127 3127 3127 3126 3126 3125 3125 3125 3125 3124 3123 3123 3122 3121 3120 3119 3118 3117 3116 3115 3114 3114 3113 3112 3111 3110 3110 3109 3108 3107 3106 3106 3105 3104 3103 3102 3102 3101 3100 3098 3097 3095 3093 3091 3090 3088 3087 3085 3081 3079 3078 3077 3075 3074 3073 3072 3070 3068 3067 3065 3064 3062 3061 3060 3058 3057
3125 3126 3127 3128 3129 3129 3129 3129 3129 3129 3130 3130 3130 3130 3130 3130 3130 3130 3129 3129 3129 3128 3128 3128 3127 3127 3127 3127 3127 3126 3125 3125 3124 3123 3122 3121 3120 3119 3118 3117 3117 3116 3115 3114 3113 3112 3111 3110 3110 3109 3108 3107 3106 3105 3104 3103 3102 3102 3101 3100 3098 3097 3096 3095 3093 3091 3089 3087 3086 3083 3080 3077 3075 3075 3074 3072 3071 3070 3068 3066 3065 3064 3062 3061 3059 3057 3056 3055
3127 3128 3128 3129 3129 3129 3130 3130 3130 3130 3130 3130 3130 3130 3130 3131 3131 3131 3130 3130 3130 3130 3130 3129 3129 3128 3128 3128 3128 3127 3126 3126 3125 3124 3123 3122 3121 3119 3119 3118 3117 3116 3115 3114 3113 3112 3111 3110 3109 3108 3107 3106 3105 3105 3104 3103 3102 3101 3101 3099 3098 3097 3096 3094 3093 3092 3090 3087 3085 3083 3079 3075 3073 3072 3072 3071 3070 3069 3067 3065 3063 3062 3061 3059 3057 3055 3054 3052
3128 3128 3129 3129 3130 3130 3130 3130 3130 3130 3130 3131 3131 3131 3131 3132 3132 3132 3132 3132 3131 3131 3131 3131 3130 3129 3129 3129 3129 3128 3127 3126 3126 3125 3124 3123 3121 3120 3119 3118 3117 3116 3115 3114 3113 3112 3111 3110 3109 3108 3106 3106 3105 3104 3104 3103 3102 3101 3100 3099 3098 3097 3096 3094 3092 3091 3090 3087 3085 3082 3078 3074 3072 3071 3071 3070 3068 3066 3064 3062 3061 3060 3058 3057 3055 3053 3051 3049
3128 3129 3129 3130 3130 3131 3131 3131 3131 3131 3131 3132 3132 3132 3133 3133 3133 3133 3133 3133 3133 3132 3132 3132 3131 3131 3130 3129 3129 3129 3128 3127 3126 3125 3124 3123 3122 3121 3119 3118 3117 3116 3115 3114 3113 3112 3111 3110 3109 3108 3107 3106 3104 3104 3104 3103 3102 3101 3100 3099 3098 3097 3095 3093 3091 3089 3088 3086 3084 3082 3077 3073 3071 3070 3069 3068 3066 3064 3062 3060 3059 3057 3056 3054 3052 3051 3048 3047
3129 3130 3130 3131 3131 3131 3132 3132 3132 3132 3133 3133 3133 3134 3134 3134 3134 3134 3134 3134 3134 3133 3133 3133 3132 3131 3130 3130 3130 3130 3129 3128 3127 3125 3124 3123 3122 3120 3119 3118 3117 3116 3115 3114 3113 3112 3111 3110 3109 3108 3107 3106 3104 3103 3103 3103 3102 3100 3099 3099 3097 3095 3093 3091 3090 3088 3086 3084 3083 3081 3077 3072 3069 3068 3067 3065 3063 3061 3060 3058 3056 3055 3054 3052 3051 3049 3047 3045
3130 3131 3131 3132 3132 3133 3133 3133 3134 3134 3134 3134 3135 3135 3135 3136 3136 3136 3135 3135 3135 3134 3134 3134 3133 3132 3131 3131 3132 3130 3129 3128 3127 3126 3124 3123 3121 3120 3119 3118 3117 3115 3114 3113 3112 3111 3110 3109 3108 3107 3106 3105 3104 3103 3103 3102 3101 3099 3098 3097 3096 3094 3091 3090 3089 3087 3085 3083 3081 3079 3075 3070 3067 3065 3064 3062 3061 3059 3057 3056 3054 3052 3051 3050 3049 3047 3045 3043
3131 3132 3132 3133 3133 3134 3134 3135 3135 3136 3136 3136 3136 3136 3137 3137 3137 3137 3137 3136 3136 3136 3135 3135 3134 3133 3132 3132 3132 3130 3129 3129 3128 3126 3124 3123 3121 3120 3119 3118 3117 3115 3114 3113 3112 3111 3110 3110 3108 3107 3106 3104 3103 3102 3102 3101 3100 3098 3097 3096 3094 3092 3091 3090 3089 3086 3084 3081 3078 3075 3072 3069 3065 3063 3062 3060 3059 3057 3056 3054 3052 3050 3048 3047 3046 3044 3042 3040
3132 3133 3134 3134 3135 3136 3136 3136 3137 3137 3137 3138 3137 3138 3138 3138 3138 3138 3138 3138 3138 3137 3136 3136 3135 3133 3133 3133 3131 3130 3129 3129 3128 3126 3124 3123 3121 3120 3119 3118 3116 3115 3114 3114 3113 3112 3111 3110 3109 3107 3105 3104 3103 3102 3102 3102 3101 3099 3097 3095 3093 3092 3091 3090 3088 3085 3081 3077 3074 3073 3069 3067 3064 3060 3059 3058 3057 3056 3054 3052 3050 3048 3046 3044 3042 3040 3038 3036
3133 3134 3135 3136 3136 3137 3137 3138 3138 3138 3138 3139 3139 3139 3139 3139 3139 3139 3140 3140 3139 3138 3137 3136 3135 3134 3135 3134 3132 3131 3130 3129 3127 3125 3124 3123 3122 3120 3119 3117 3116 3116 3115 3115 3113 3112 3111 3111 3109 3108 3107 3106 3105 3104 3103 3102 3101 3099 3097 3095 3094 3092 3089 3087 3085 3081 3078 3073 3069 3069 3066 3063 3062 3058 3056 3056 3055 3053 3051 3049 3047 3045 3042 3040 3038 3036 3034 3032
3135 3136 3137 3137 3138 3138 3139 3139 3139 3139 3140 3140 3141 3140 3140 3141 3141 3141 3141 3140 3140 3139 3138 3137 3137 3136 3136 3135 3133 3132 3131 3129 3127 3126 3125 3123 3122 3120 3119 3118 3117 3116 3116 3114 3113 3112 3111 3110 3109 3109 3109 3108 3106 3105 3104 3102 3100 3098 3096 3094 3094 3092 3087 3084 3082 3078 3077 3072 3065 3065 3061 3058 3059 3057 3054 3054 3052 3050 3047 3045 3043 3041 3039 3036 3034 3032 3030 3028
3136 3137 3138 3138 3139 3140 3140 3140 3140 3141 3141 3142 3142 3142 3142 3142 3143 3143 3142 3141 3141 3140 3139 3138 3138 3137 3136 3135 3134 3133 3131 3130 3129 3127 3126 3124 3122 3121 3119 3118 3117 3116 3116 3114 3113 3112 3111 3110 3110 3110 3110 3108 3106 3105 3104 3102 3100 3097 3096 3095 3093 3091 3084 3078 3078 3077 3075 3071 3064 3061 3058 3054 3056 3056 3053 3050 3049 3047 3044 3041 3039 3037 3035 3032 3030 3028 3026 3024
3138 3139 3139 3140 3141 3141 3142 3142 3142 3143 3143 3143 3144 3144 3144 3144 3144 3144 3143 3142 3142 3141 3140 3139 3139 3139 3137 3136 3134 3133 3132 3130 3129 3127 3126 3124 3122 3121 3120 3118 3117 3117 3116 3115 3114 3113 3111 3111 3111 3111 3109 3108 3106 3105 3104 3102 3100 3098 3097 3095 3092 3090 3085 3076 3073 3073 3072 3070 3065 3060 3055 3051 3053 3053 3051 3048 3045 3044 3041 3038 3036 3034 3031 3029 3027 3025 3023 3021
3139 3140 3141 3142 3142 3143 3143 3144 3144 3144 3144 3145 3145 3145 3145 3145 3145 3144 3143 3143 3142 3142 3141 3141 3140 3139 3138 3137 3135 3134 3132 3130 3129 3128 3126 3125 3123 3122 3120 3119 3118 3117 3116 3116 3115 3114 3113 3112 3112 3111 3109 3108 3106 3104 3102 3100 3099 3097 3096 3096 3092 3088 3085 3080 3073 3069 3067 3066 3064 3060 3054 3050 3051 3051 3049 3046 3043 3041 3039 3036 3034 3032 3029 3027 3025 3023 3020 3018
3141 3141 3142 3143 3143 3144 3144 3145 3146 3146 3146 3146 3146 3146 3146 3146 3145 3144 3144 3143 3143 3143 3142 3141 3141 3140 3138 3137 3135 3134 3133 3131 3130 3128 3127 3125 3124 3123 3121 3120 3119 3118 3117 3116 3115 3114 3114 3114 3113 3111 3109 3108 3106 3104 3102 3099 3098 3097 3096 3095 3092 3086 3082 3077 3073 3069 3065 3062 3062 3060 3055 3050 3049 3050 3047 3044 3041 3039 3037 3034 3032 3030 3028 3025 3023 3021 3019 3016
3142 3143 3144 3144 3145 3145 3146 3146 3147 3147 3147 3147 3147 3147 3147 3146 3145 3144 3144 3144 3144 3144 3143 3142 3141 3140 3139 3138 3136 3135 3133 3132 3130 3129 3128 3126 3125 3124 3122 3121 3120 3119 3118 3117 3116 3116 3115 3114 3112 3111 3109 3107 3105 3103 3101 3099 3097 3096 3095 3093 3089 3085 3080 3074 3072 3071 3067 3063 3061 3060 3058 3051 3047 3048 3047 3043 3040 3037 3034 3032 3031 3029 3026 3023 3021 3019 3017 3013
3143 3144 3145 3145 3146 3147 3147 3147 3148 3148 3148 3148 3148 3147 3147 3146 3145 3144 3144 3144 3145 3145 3144 3143 3143 3141 3140 3139 3137 3136 3134 3133 3131 3130 3129 3127 3125 3124 3123 3122 3121 3120 3119 3118 3117 3116 3115 3113 3112 3110 3109 3106 3104 3102 3100 3099 3096 3094 3093 3090 3086 3082 3077 3073 3070 3070 3067 3063 3060 3059 3059 3054 3046 3045 3046 3042 3038 3035 3033 3032 3030 3027 3025 3022 3019 3017 3014 3011
3145 3146 3146 3147 3148 3148 3148 3149 3149 3149 3148 3148 3148 3147 3147 3146 3145 3145 3144 3146 3148 3147 3146 3145 3144 3143 3141 3140 3138 3137 3135 3134 3132 3131 3129 3128 3126 3125 3124 3123 3122 3121 3119 3118 3117 3116 3114 3112 3111 3109 3107 3106 3104 3102 3101 3099 3096 3093 3090 3088 3084 3080 3075 3070 3068 3067 3065 3063 3061 3057 3057 3055 3047 3042 3043 3040 3036 3034 3033 3032 3029 3025 3022 3019 3016 3013 3010 3007
3146 3147 3148 3148 3149 3149 3150 3150 3150 3149 3149 3148 3148 3147 3147 3146 3146 3145 3145 3148 3150 3149 3148 3147 3145 3144 3143 3141 3139 3137 3136 3135 3133 3131 3130 3128 3127 3125 3124 3123 3122 3121 3119 3118 3117 3116 3114 3112 3110 3109 3107 3105 3104 3103 3101 3098 3095 3092 3089 3085 3082 3079 3073 3068 3066 3065 3063 3062 3060 3057 3057 3057 3048 3039 3039 3038 3036 3035 3032 3029 3026 3023 3020 3016 3013 3010 3005 3002
3148 3149 3149 3150 3150 3150 3150 3150 3150 3149 3149 3148 3148 3147 3147 3147 3146 3146 3147 3150 3151 3150 3149 3148 3146 3145 3144 3142 3140 3138 3137 3135 3134 3133 3131 3129 3128 3126 3125 3124 3122 3120 3119 3117 3116 3115 3113 3111 3110 3108 3107 3105 3104 3102 3100 3098 3095 3090 3087 3083 3078 3075 3071 3067 3066 3066 3063 3060 3059 3057 3058 3058 3049 3040 3038 3038 3036 3035 3032 3028 3025 3021 3018 3015 3011 3007 3002 2998
3150 3150 3151 3151 3151 3151 3151 3150 3150 3149 3149 3148 3148 3148 3148 3148 3147 3147 3150 3152 3152 3151 3150 3149 3147 3145 3143 3142 3140 3138 3137 3136 3134 3133 3131 3130 3128 3126 3125 3123 3121 3120 3119 3117 3116 3114 3113 3111 3109 3108 3107 3105 3103 3101 3099 3097 3093 3089 3086 3082 3075 3070 3067 3065 3064 3064 3063 3059 3056 3056 3055 3054 3048 3040 3037 3036 3035 3034 3030 3026 3022 3019 3016 3013 3008 3004 3000 2996
3151 3152 3152 3152 3152 3151 3151 3150 3150 3149 3149 3149 3149 3149 3149 3149 3148 3150 3153 3153 3152 3151 3150 3148 3147 3145 3144 3142 3140 3139 3137 3135 3133 3131 3129 3128 3127 3124 3123 3122 3120 3119 3118 3117 3115 3114 3112 3111 3109 3108 3107 3105 3101 3098 3096 3094 3091 3088 3085 3082 3077 3071 3067 3066 3064 3064 3063 3058 3054 3055 3053 3049 3046 3040 3036 3033 3032 3031 3028 3023 3019 3016 3013 3008 3005 3001 2998 2994
3152 3152 3153 3152 3152 3152 3151 3151 3150 3150 3150 3149 3149 3150 3149 3150 3152 3154 3154 3153 3152 3151 3150 3149 3148 3146 3144 3142 3141 3139 3137 3135 3133 3131 3129 3127 3126 3125 3124 3124 3122 3121 3120 3117 3115 3113 3111 3109 3108 3107 3105 3104 3101 3096 3093 3091 3089 3088 3085 3083 3081 3078 3076 3074 3069 3066 3064 3056 3051 3054 3052 3047 3044 3041 3037 3034 3031 3028 3025 3021 3018 3015 3010 3005 3001 2998 2994 2990
3153 3153 3153 3153 3152 3152 3152 3151 3151 3151 3151 3150 3150 3150 3150 3152 3155 3156 3155 3154 3153 3152 3150 3150 3148 3146 3144 3143 3141 3139 3136 3135 3133 3132 3131 3129 3128 3126 3126 3125 3124 3123 3121 3118 3116 3114 3112 3110 3108 3107 3105 3103 3101 3098 3095 3092 3090 3089 3088 3086 3085 3084 3083 3080 3073 3069 3065 3055 3049 3050 3049 3045 3043 3039 3036 3034 3030 3026 3023 3020 3016 3011 3006 3002 2997 2993 2988 2984
3154 3154 3154 3154 3153 3153 3153 3152 3152 3152 3152 3151 3151 3151 3151 3154 3156 3156 3155 3154 3154 3152 3151 3150 3149 3147 3145 3143 3141 3139 3137 3136 3134 3132 3131 3130 3129 3127 3126 3125 3124 3123 3121 3119 3117 3115 3113 3111 3109 3106 3105 3103 3100 3098 3095 3092 3091 3089 3087 3086 3085 3084 3083 3079 3073 3070 3066 3057 3048 3046 3045 3045 3044 3038 3033 3032 3030 3026 3020 3015 3011 3005 3002 2998 2994 2990 2986 2983
3155 3155 3155 3154 3154 3154 3154 3154 3153 3153 3153 3152 3152 3152 3153 3155 3156 3156 3155 3155 3154 3153 3151 3150 3148 3147 3145 3143 3142 3140 3139 3137 3136 3134 3132 3131 3130 3128 3127 3125 3124 3122 3120 3119 3117 3115 3112 3109 3107 3105 3104 3102 3099 3097 3095 3092 3090 3088 3085 3084 3083 3082 3080 3077 3072 3068 3066 3058 3049 3044 3041 3039 3040 3036 3032 3030 3027 3022 3016 3012 3008 3003 2999 2996 2992 2988 2985 2981
3156 3156 3156 3155 3155 3155 3155 3155 3154 3154 3154 3154 3153 3153 3155 3156 3156 3156 3156 3155 3154 3153 3152 3150 3148 3147 3145 3144 3143 3142 3140 3139 3138 3136 3134 3132 3130 3129 3128 3126 3124 3122 3120 3119 3118 3116 3112 3106 3104 3105 3103 3101 3098 3096 3094 3093 3090 3088 3085 3083 3081 3080 3078 3077 3073 3067 3064 3058 3047 3042 3039 3035 3036 3033 3029 3028 3023 3018 3015 3010 3005 3000 2997 2994 2990 2987 2983 2979
3157 3157 3157 3157 3157 3156 3156 3155 3155 3155 3155 3155 3154 3154 3156 3157 3157 3157 3156 3156 3155 3153 3152 3150 3149 3148 3146 3145 3144 3142 3141 3140 3138 3137 3135 3134 3131 3129 3127 3126 3124 3122 3121 3120 3118 3117 3113 3105 3102 3104 3103 3100 3097 3096 3094 3092 3090 3089 3086 3082 3080 3080 3078 3078 3075 3070 3066 3057 3044 3040 3038 3034 3034 3031 3026 3025 3021 3015 3011 3006 3001 2997 2995 2992 2987 2983 2979 2975
3159 3159 3159 3158 3158 3157 3157 3157 3156 3156 3156 3156 3155 3156 3157 3158 3158 3157 3157 3156 3155 3154 3152 3151 3150 3149 3147 3146 3145 3143 3141 3140 3139 3137 3135 3134 3132 3129 3127 3125 3124 3122 3120 3120 3118 3116 3114 3108 3103 3102 3102 3099 3097 3096 3094 3091 3090 3087 3085 3082 3080 3080 3079 3077 3076 3072 3068 3059 3046 3040 3035 3030 3032 3031 3026 3023 3018 3012 3007 3002 2998 2996 2992 2989 2984 2979 2975 2970
3161 3161 3161 3160 3160 3159 3158 3158 3158 3158 3157 3156 3157 3157 3158 3159 3158 3158 3157 3157 3156 3154 3153 3152 3151 3150 3148 3147 3145 3143 3142 3140 3138 3137 3135 3134 3131 3129 3127 3125 3124 3122 3120 3119 3117 3115 3113 3111 3105 3100 3099 3098 3097 3096 3093 3091 3089 3085 3082 3081 3079 3078 3077 3075 3073 3072 3070 3063 3052 3045 3034 3026 3030 3031 3025 3021 3017 3012 3006 2999 2995 2992 2989 2986 2981 2976 2971 2967
3164 3163 3162 3162 3162 3160 3160 3160 3161 3159 3157 3157 3158 3159 3159 3160 3159 3159 3158 3157 3156 3155 3154 3153 3151 3150 3148 3147 3145 3143 3142 3140 3138 3136 3134 3133 3131 3128 3126 3124 3123 3121 3120 3118 3116 3113 3111 3110 3105 3099 3097 3097 3096 3095 3092 3090 3089 3084 3082 3081 3078 3077 3075 3074 3071 3068 3070 3065 3055 3049 3035 3023 3027 3029 3024 3022 3018 3011 3005 2998 2993 2989 2985 2982 2977 2973 2968 2963
3165 3164 3164 3164 3163 3162 3162 3162 3162 3160 3159 3159 3160 3160 3160 3160 3160 3159 3159 3158 3157 3155 3155 3153 3152 3150 3148 3146 3145 3143 3141 3139 3137 3136 3134 3132 3130 3128 3126 3124 3122 3120 3119 3117 3115 3113 3110 3108 3104 3100 3098 3097 3095 3092 3090 3088 3086 3082 3080 3079 3077 3076 3074 3074 3070 3064 3065 3063 3056 3050 3035 3020 3024 3027 3022 3020 3015 3007 3003 2997 2991 2986 2982 2978 2973 2969 2965 2959
3167 3166 3166 3166 3165 3165 3165 3163 3162 3162 3161 3161 3161 3162 3161 3161 3160 3160 3159 3158 3157 3156 3155 3153 3151 3150 3148 3146 3144 3142 3140 3138 3136 3134 3133 3131 3129 3127 3125 3123 3121 3119 3118 3116 3115 3113 3110 3108 3104 3099 3095 3093 3092 3091 3089 3087 3084 3081 3079 3078 3076 3075 3073 3072 3069 3064 3062 3059 3054 3049 3030 3013 3018 3024 3018 3015 3011 3004 3000 2995 2989 2983 2977 2974 2969 2964 2960 2954
3169 3168 3168 3167 3167 3167 3166 3164 3164 3164 3162 3162 3163 3162 3162 3161 3161 3160 3159 3158 3157 3156 3154 3152 3151 3149 3147 3146 3144 3142 3140 3138 3136 3134 3132 3130 3128 3126 3124 3122 3121 3119 3117 3116 3114 3112 3110 3109 3106 3101 3094 3090 3087 3087 3086 3084 3082 3080 3079 3078 3075 3073 3070 3068 3066 3063 3060 3055 3054 3051 3029 3008 3013 3019 3015 3011 3006 2999 2996 2992 2987 2981 2973 2969 2966 2960 2955 2950
3171 3170 3169 3169 3169 3168 3166 3165 3165 3165 3164 3164 3163 3163 3162 3162 3161 3161 3160 3158 3157 3155 3154 3152 3150 3149 3147 3145 3143 3141 3140 3138 3136 3134 3132 3130 3128 3126 3124 3122 3120 3119 3118 3116 3114 3113 3111 3109 3107 3105 3103 3098 3093 3089 3086 3083 3080 3077 3076 3076 3074 3071 3068 3065 3063 3060 3055 3050 3049 3048 3031 3010 3009 3015 3011 3006 3001 2995 2991 2987 2983 2978 2971 2965 2961 2956 2951 2946
3172 3171 3171 3170 3170 3169 3167 3166 3166 3166 3165 3165 3164 3163 3163 3162 3161 3161 3159 3158 3156 3155 3153 3151 3150 3148 3147 3145 3142 3140 3138 3137 3136 3134 3131 3129 3128 3126 3124 3122 3120 3119 3118 3116 3114 3113 3111 3109 3107 3107 3107 3104 3097 3093 3089 3084 3080 3075 3072 3072 3071 3069 3065 3063 3061 3057 3052 3045 3038 3038 3033 3015 3007 3011 3008 3002 2997 2992 2987 2982 2977 2973 2967 2961 2957 2952 2947 2943
3174 3173 3172 3171 3170 3169 3168 3168 3167 3167 3166 3165 3164 3164 3163 3162 3161 3160 3159 3157 3156 3154 3153 3151 3149 3147 3146 3144 3142 3140 3139 3137 3135 3133 3131 3129 3127 3125 3123 3122 3120 3119 3117 3116 3114 3112 3110 3108 3107 3106 3104 3102 3097 3092 3088 3084 3080 3075 3071 3070 3069 3066 3062 3061 3060 3055 3052 3044 3029 3024 3027 3016 3005 3007 3005 2999 2995 2989 2983 2979 2973 2968 2963 2958 2953 2948 2943 2938
3175 3174 3173 3172 3171 3171 3170 3169 3168 3167 3166 3165 3165 3164 3163 3162 3161 3160 3158 3157 3155 3154 3152 3150 3149 3147 3145 3143 3141 3140 3138 3136 3134 3132 3131 3128 3126 3125 3123 3121 3120 3118 3117 3115 3113 3112 3110 3108 3106 3103 3101 3099 3095 3090 3086 3082 3079 3074 3071 3069 3067 3065 3061 3058 3057 3054 3052 3048 3033 3021 3020 3015 3007 3005 3002 2997 2993 2987 2982 2977 2972 2965 2960 2954 2948 2942 2937 2932
3176 3175 3174 3173 3172 3171 3171 3170 3169 3168 3167 3166 3165 3164 3163 3162 3161 3159 3158 3156 3155 3153 3151 3149 3148 3146 3144 3143 3141 3139 3137 3135 3133 3132 3130 3128 3126 3124 3122 3120 3119 3117 3116 3114 3113 3111 3109 3107 3104 3100 3097 3095 3092 3088 3085 3080 3075 3072 3070 3068 3065 3063 3060 3056 3054 3052 3049 3046 3038 3027 3019 3013 3010 3006 3001 2997 2991 2985 2981 2975 2969 2962 2955 2948 2943 2938 2933 2927
3176 3175 3174 3174 3173 3172 3171 3170 3169 3168 3167 3166 3165 3164 3163 3162 3161 3159 3157 3156 3154 3153 3151 3149 3147 3146 3144 3142 3141 3139 3137 3135 3133 3131 3129 3127 3125 3123 3121 3120 3118 3117 3115 3114 3112 3111 3108 3106 3103 3098 3093 3091 3089 3086 3082 3077 3073 3070 3068 3067 3064 3060 3057 3054 3050 3047 3043 3037 3032 3026 3018 3011 3008 3005 3000 2995 2989 2981 2977 2972 2965 2958 2951 2944 2939 2935 2929 2922
3177 3176 3175 3174 3173 3172 3171 3170 3170 3169 3168 3166 3165 3164 3163 3162 3160 3159 3157 3156 3154 3152 3150 3148 3147 3145 3144 3142 3140 3138 3136 3135 3132 3130 3128 3127 3125 3123 3121 3119 3118 3116 3115 3113 3111 3109 3107 3104 3102 3097 3092 3088 3086 3083 3077 3073 3071 3069 3066 3064 3062 3058 3054 3051 3049 3045 3040 3032 3024 3020 3014 3007 3003 2999 2995 2991 2986 2978 2972 2968 2962 2956 2949 2943 2936 2929 2922 2916
3178 3177 3176 3175 3174 3173 3172 3171 3170 3169 3168 3167 3165 3164 3163 3162 3160 3159 3157 3156 3154 3152 3150 3148 3146 3144 3142 3141 3139 3137 3136 3134 3132 3130 3128 3126 3124 3123 3121 3119 3118 3116 3114 3113 3111 3108 3106 3103 3100 3097 3091 3086 3084 3082 3076 3071 3069 3067 3065 3062 3059 3056 3051 3048 3046 3044 3040 3033 3024 3016 3011 3006 3000 2994 2988 2984 2982 2977 2971 2967 2962 2955 2950 2945 2937 2928 2920 2913